| time (UTC) | temp C | wind direction | speed KPH | gust KPH | rain 1hr cm | rain 24hr cm | rain mn cm | humidity % | barometer mb |
| 20260508121535 | 16 | 259 | 0.0 | 6.4 | 0.00 | 0.00 | 0.00 | 69 | 1007.9 |
| 20260508120035 | 17 | 257 | 0.0 | 0.0 | 0.00 | 0.00 | 0.00 | 70 | 1007.8 |
| 20260508114532 | 16 | 291 | 1.6 | 6.4 | 0.00 | 0.00 | 0.00 | 72 | 1007.8 |
| 20260508113030 | 16 | 294 | 0.0 | 6.4 | 0.00 | 0.00 | 0.00 | 74 | 1007.7 |
| 20260508111529 | 16 | 270 | 1.6 | 6.4 | 0.00 | 0.00 | 0.00 | 74 | 1008.0 |
| 20260508110026 | 15 | 273 | 0.0 | 3.2 | 0.00 | 0.00 | 0.00 | 76 | 1008.1 |
| 20260508104533 | 15 | 252 | 0.0 | 8.0 | 0.00 | 0.00 | 0.00 | 76 | 1008.3 |
| 20260508103027 | 15 | 58 | 0.0 | 3.2 | 0.00 | 0.00 | 0.00 | 79 | 1008.2 |
| 20260508101517 | 15 | 96 | 0.0 | 4.8 | 0.00 | 0.00 | 0.00 | 81 | 1008.1 |
| 20260508100016 | 15 | 109 | 0.0 | 3.2 | 0.00 | 0.00 | 0.00 | 84 | 1008.0 |
| 20260508094511 | 14 | 109 | 0.0 | 4.8 | 0.00 | 0.00 | 0.00 | 84 | 1007.9 |
| 20260508093009 | 13 | 92 | 0.0 | 3.2 | 0.00 | 0.00 | 0.00 | 85 | 1007.8 |
| 20260508091505 | 13 | 84 | 0.0 | 4.8 | 0.00 | 0.00 | 0.00 | 86 | 1007.7 |
| 20260508090004 | 13 | 53 | 0.0 | 4.8 | 0.00 | 0.00 | 0.00 | 89 | 1007.7 |
| 20260508084600 | 13 | 57 | 0.0 | 1.6 | 0.00 | 0.00 | 0.00 | 90 | 1007.9 |
| 20260508083111 | 12 | 57 | 0.0 | 0.0 | 0.00 | 0.00 | 0.00 | 90 | 1007.7 |
| 20260508081600 | 12 | 46 | 0.0 | 3.2 | 0.00 | 0.00 | 0.00 | 90 | 1007.8 |
| 20260508080108 | 12 | 46 | 0.0 | 3.2 | 0.00 | 0.00 | 0.00 | 91 | 1007.9 |
| 20260508074555 | 12 | 44 | 0.0 | 6.4 | 0.00 | 0.00 | 0.00 | 91 | 1007.7 |
| 20260508073055 | 12 | 184 | 0.0 | 0.0 | 0.00 | 0.00 | 0.00 | 91 | 1007.7 |
| 20260508071601 | 12 | 184 | 0.0 | 1.6 | 0.00 | 0.00 | 0.00 | 91 | 1007.6 |
| 20260508070137 | 12 | 184 | 0.0 | 4.8 | 0.00 | 0.00 | 0.00 | 90 | 1007.7 |
| 20260508064600 | 12 | 184 | 1.6 | 4.8 | 0.00 | 0.00 | 0.00 | 90 | 1007.5 |
| 20260508063048 | 12 | 187 | 0.0 | 8.0 | 0.00 | 0.00 | 0.00 | 90 | 1007.3 |
| 20260508061549 | 12 | 214 | 1.6 | 4.8 | 0.00 | 0.00 | 0.00 | 89 | 1007.1 |
| 20260508060045 | 12 | 251 | 0.0 | 3.2 | 0.00 | 0.00 | 0.00 | 89 | 1006.8 |
| 20260508054544 | 12 | 251 | 0.0 | 1.6 | 0.00 | 0.00 | 0.00 | 89 | 1006.8 |
| 20260508053045 | 12 | 251 | 0.0 | 3.2 | 0.00 | 0.00 | 0.00 | 89 | 1006.8 |
| 20260508051540 | 11 | 251 | 0.0 | 1.6 | 0.00 | 0.00 | 0.00 | 90 | 1007.0 |
| 20260508050041 | 12 | 251 | 0.0 | 4.8 | 0.00 | 0.00 | 0.00 | 90 | 1007.0 |
| 20260508044540 | 12 | 244 | 0.0 | 3.2 | 0.00 | 0.00 | 0.00 | 90 | 1006.9 |
| 20260508043056 | 11 | 226 | 0.0 | 1.6 | 0.00 | 0.00 | 0.00 | 90 | 1007.0 |
| 20260508041538 | 11 | 226 | 0.0 | 3.2 | 0.00 | 0.00 | 0.00 | 90 | 1007.1 |
| 20260508040038 | 12 | 227 | 0.0 | 3.2 | 0.00 | 0.00 | 0.00 | 90 | 1007.1 |
| 20260508034536 | 12 | 232 | 0.0 | 1.6 | 0.00 | 0.00 | 0.00 | 89 | 1007.1 |
| 20260508033036 | 12 | 232 | 0.0 | 1.6 | 0.00 | 0.00 | 0.00 | 89 | 1007.2 |
| 20260508031534 | 12 | 232 | 0.0 | 1.6 | 0.00 | 0.00 | 0.00 | 90 | 1007.3 |
| 20260508030048 | 11 | 232 | 0.0 | 1.6 | 0.00 | 0.00 | 0.00 | 90 | 1007.2 |
| 20260508024535 | 11 | 232 | 0.0 | 1.6 | 0.00 | 0.00 | 0.00 | 90 | 1007.2 |
| 20260508023032 | 11 | 232 | 0.0 | 3.2 | 0.00 | 0.00 | 0.00 | 91 | 1007.2 |
| 20260508021536 | 11 | 243 | 0.0 | 1.6 | 0.00 | 0.00 | 0.00 | 91 | 1007.3 |
| 20260508020031 | 11 | 243 | 0.0 | 3.2 | 0.00 | 0.00 | 0.00 | 91 | 1007.4 |
| 20260508014529 | 11 | 243 | 0.0 | 0.0 | 0.00 | 0.00 | 0.00 | 91 | 1007.5 |
| 20260508013027 | 11 | 243 | 0.0 | 0.0 | 0.00 | 0.00 | 0.00 | 92 | 1007.7 |
| 20260508011527 | 11 | 243 | 0.0 | 0.0 | 0.00 | 0.00 | 0.00 | 92 | 1007.8 |
| 20260508010027 | 11 | 243 | 0.0 | 0.0 | 0.00 | 0.00 | 0.00 | 92 | 1007.9 |
| 20260508004527 | 11 | 243 | 0.0 | 1.6 | 0.00 | 0.00 | 0.00 | 92 | 1008.1 |
| 20260508003021 | 12 | 243 | 0.0 | 0.0 | 0.00 | 0.00 | 0.00 | 92 | 1008.2 |
| 20260508001520 | 12 | 243 | 0.0 | 0.0 | 0.00 | 0.00 | 0.00 | 92 | 1008.2 |
| 20260508000018 | 12 | 243 | 0.0 | 0.0 | 0.00 | 0.00 | 0.00 | 91 | 1008.3 |
| 20260507234518 | 12 | 243 | 0.0 | 1.6 | 0.00 | 0.00 | 0.00 | 91 | 1008.4 |
| 20260507233014 | 12 | 243 | 0.0 | 1.6 | 0.00 | 0.00 | 0.00 | 90 | 1008.5 |
| 20260507231517 | 12 | 243 | 0.0 | 1.6 | 0.00 | 0.00 | 0.00 | 90 | 1008.7 |
| 20260507230011 | 13 | 243 | 0.0 | 0.0 | 0.00 | 0.00 | 0.00 | 89 | 1008.8 |
| 20260507224508 | 13 | 243 | 0.0 | 0.0 | 0.00 | 0.00 | 0.00 | 89 | 1008.7 |
| 20260507223008 | 13 | 243 | 0.0 | 1.6 | 0.00 | 0.00 | 0.00 | 90 | 1009.0 |
| 20260507221508 | 13 | 243 | 0.0 | 0.0 | 0.00 | 0.00 | 0.00 | 91 | 1009.3 |
| 20260507220104 | 13 | 243 | 0.0 | 0.0 | 0.00 | 0.00 | 0.00 | 91 | 1009.3 |
| 20260507214508 | 13 | 243 | 0.0 | 0.0 | 0.00 | 0.00 | 0.00 | 91 | 1009.3 |
| 20260507213010 | 13 | 243 | 0.0 | 0.0 | 0.00 | 0.00 | 0.00 | 91 | 1009.3 |
| 20260507211508 | 13 | 243 | 0.0 | 0.0 | 0.00 | 0.00 | 0.00 | 91 | 1009.2 |
| 20260507210010 | 13 | 243 | 0.0 | 1.6 | 0.00 | 0.00 | 0.00 | 91 | 1009.2 |
| 20260507204508 | 13 | 243 | 0.0 | 1.6 | 0.00 | 0.00 | 0.00 | 91 | 1009.0 |
| 20260507203007 | 13 | 243 | 1.6 | 6.4 | 0.00 | 0.00 | 0.00 | 90 | 1009.0 |
| 20260507201506 | 13 | 243 | 0.0 | 1.6 | 0.00 | 0.00 | 0.00 | 90 | 1008.7 |
| 20260507200005 | 13 | 243 | 1.6 | 6.4 | 0.00 | 0.00 | 0.00 | 90 | 1008.6 |
| 20260507194504 | 13 | 250 | 1.6 | 4.8 | 0.00 | 0.00 | 0.00 | 89 | 1008.5 |
| 20260507193005 | 13 | 250 | 0.0 | 1.6 | 0.00 | 0.00 | 0.00 | 88 | 1008.5 |
| 20260507191504 | 13 | 250 | 0.0 | 4.8 | 0.00 | 0.00 | 0.00 | 88 | 1008.6 |
| 20260507190007 | 14 | 250 | 0.0 | 4.8 | 0.00 | 0.00 | 0.00 | 87 | 1008.6 |
| 20260507184504 | 14 | 250 | 0.0 | 4.8 | 0.00 | 0.00 | 0.00 | 87 | 1008.5 |
| 20260507183006 | 14 | 248 | 1.6 | 6.4 | 0.00 | 0.00 | 0.00 | 87 | 1008.5 |
| 20260507181503 | 14 | 249 | 1.6 | 8.0 | 0.00 | 0.00 | 0.00 | 87 | 1008.6 |
| 20260507180003 | 15 | 274 | 1.6 | 6.4 | 0.00 | 0.00 | 0.00 | 86 | 1008.4 |
| 20260507174501 | 15 | 275 | 1.6 | 9.7 | 0.00 | 0.00 | 0.00 | 85 | 1008.4 |
| 20260507173002 | 15 | 252 | 1.6 | 8.0 | 0.00 | 0.00 | 0.00 | 84 | 1008.4 |
| 20260507171502 | 15 | 286 | 3.2 | 11.3 | 0.00 | 0.00 | 0.00 | 85 | 1008.3 |
| 20260507164629 | 16 | 344 | 0.0 | 3.2 | 0.00 | 0.00 | 0.00 | 81 | 1008.6 |
| 20260507163057 | 16 | 344 | 0.0 | 0.0 | 0.00 | 0.00 | 0.00 | 81 | 1008.8 |
| 20260507161601 | 16 | 344 | 0.0 | 4.8 | 0.00 | 0.00 | 0.00 | 80 | 1009.0 |
| 20260507160056 | 16 | 336 | 0.0 | 6.4 | 0.00 | 0.00 | 0.00 | 79 | 1009.0 |
| 20260507154555 | 16 | 18 | 0.0 | 6.4 | 0.00 | 0.00 | 0.00 | 78 | 1008.8 |
| 20260507153054 | 16 | 19 | 1.6 | 8.0 | 0.00 | 0.00 | 0.00 | 77 | 1008.7 |
| 20260507151552 | 16 | 13 | 0.0 | 6.4 | 0.00 | 0.00 | 0.00 | 78 | 1008.8 |
| 20260507150050 | 16 | 31 | 1.6 | 4.8 | 0.00 | 0.00 | 0.00 | 82 | 1008.9 |
| 20260507144546 | 15 | 36 | 0.0 | 6.4 | 0.00 | 0.00 | 0.00 | 82 | 1009.2 |
| 20260507143100 | 15 | 36 | 0.0 | 4.8 | 0.00 | 0.00 | 0.00 | 81 | 1009.6 |
| 20260507141603 | 15 | 36 | 0.0 | 4.8 | 0.00 | 0.00 | 0.00 | 82 | 1009.7 |
| 20260507140045 | 15 | 36 | 0.0 | 4.8 | 0.00 | 0.00 | 0.00 | 83 | 1009.7 |
| 20260507134542 | 15 | 36 | 0.0 | 8.0 | 0.00 | 0.00 | 0.00 | 83 | 1009.6 |
| 20260507133042 | 15 | 36 | 0.0 | 8.0 | 0.00 | 0.00 | 0.00 | 83 | 1009.5 |
| 20260507131551 | 15 | 36 | 3.2 | 9.7 | 0.00 | 0.00 | 0.00 | 85 | 1009.3 |
| 20260507130043 | 14 | 10 | 3.2 | 9.7 | 0.00 | 0.00 | 0.00 | 85 | 1009.4 |
| 20260507124538 | 14 | 36 | 4.8 | 12.9 | 0.00 | 0.00 | 0.00 | 84 | 1009.8 |
| 20260507123039 | 15 | 35 | 4.8 | 12.9 | 0.00 | 0.00 | 0.00 | 83 | 1010.0 |